{"data":{"norad_id":49767,"epoch":"2026-09-19T19:51:10.553472Z","epoch_age_seconds":103360,"freshness":"FRESH","line1":"1 49767U 21115AV  26262.82720548  .00000444  00000+0  24279-4 0  9996","line2":"2 49767  53.1614 332.5491 0001443  67.4317 292.6838 15.34389371265197","mean_motion":15.34389371,"eccentricity":0.0001443,"inclination_deg":53.1614,"raan_deg":332.5491,"arg_perigee_deg":67.4317,"mean_anomaly_deg":292.6838,"bstar":2.4279e-5,"rev_number":26519,"period_min":93.848408182176,"perigee_km":461.74769421207,"apogee_km":463.72196982279,"semimajor_km":6840.8718320174,"source":"CELESTRAK","updated_at":"2026-09-20T09:00:39.411947Z"}}